Regional Weather Roundup
Issued by NWS

Home | Current Version | Previous Version | Text Only | Print | Product List | Glossary Off
Versions: 1 2 3 4 5 6 7 8 9 10 11 12 13 14 15 16 17 18 19 20 21 22 23 24 25 26 27 28 29 30 31 32 33 34 35 36 37 38 39 40 41 42 43 44 45 46 47 48 49 50

000
ASUS45 KBOU 270907
RWRCO

WEATHER ROUNDUP FOR COLORADO
NATIONAL WEATHER SERVICE DENVER/BOULDER CO
300 AM MDT THU JUL 27 2017

NOTE: "FAIR" INDICATES FEW OR NO CLOUDS BELOW 12000 FEET WITH NO
SIGNIFICANT WEATHER AND/OR OBSTRUCTIONS TO VISIBILITY.

COZ001>005-013-030-031-271000-
...NORTHWEST COLORADO...

CITY           SKY/WX    TMP DP  RH WIND       PRES   REMARKS
CRAIG          FAIR      56  54  93 W3        30.29F
HAYDEN         FAIR      57  52  82 E7        30.31F
MEEKER         FAIR      60  55  83 E7        30.30F
RABBIT EARS PA FAIR      52  48  87 CALM      30.59F
STEAMBOAT SPGS FAIR      55  54  95 CALM      30.34F
WALDEN         FAIR      48  46  93 SE7       30.44S
$$

COZ006>008-011-271000-
...WEST CENTRAL VALLEYS...

CITY           SKY/WX    TMP DP  RH WIND       PRES   REMARKS
GRAND JUNCTION FAIR      69  59  70 E3        30.15S
MONTROSE       FAIR      65  57  75 SE8       30.25S
EAGLE          FAIR      60  53  77 CALM      30.35R
RIFLE          FAIR      65  60  84 SE3       30.23S
DELTA          FAIR      68  56  67 N6        30.21S
NUCLA          FAIR      64  54  68 CALM      30.29S
$$

COZ017>023-064>068-271000-
...SOUTHWEST COLORADO...

CITY           SKY/WX    TMP DP  RH WIND       PRES   REMARKS
DURANGO        FAIR      62  53  72 NW3       30.27F
CORTEZ         FAIR      61  56  83 E5        30.23S
PAGOSA SPRINGS FAIR      57  48  72 NW3       30.37F
TELLURIDE      FAIR      55  53  93 SE5       30.51S
WOLF CREEK PAS MOCLDY    50  41  71 CALM      30.75S
$$

COZ009-010-012-014-032>034-037-058>063-271000-
...CENTRAL COLORADO...

CITY           SKY/WX    TMP DP  RH WIND       PRES   REMARKS
ASPEN          FAIR      56  52  86 S5        30.39S
BUENA VISTA    CLOUDY    58  52  80 E6        30.45S
COPPER MTN     MOCLDY    54  46  76 SW3       30.72S
BERTHOUD PASS  FAIR      43  32  65 W17       30.74S
COTTONWOOD PAS CLOUDY    55  52  88 E7        30.58S
GUNNISON       FAIR      57  51  80 NE3       30.41S
KREMMLING      CLOUDY    61  59  94 CALM      30.41S
LEADVILLE      FAIR      49  47  93 CALM      30.55R
MONARCH PASS   CLOUDY    46  46 100 E7        30.81F
SALIDA         FAIR      61  55  80 SW3       30.50S
SUNLIGHT       FAIR      52  46  82 CALM      30.64S
WILKERSON PASS FOG       46  46 100 E5        30.69F VSB 1/2
$$

COZ069>075-271000-
...SAN LUIS VALLEY/SANGRE DE CRISTO MOUNTAINS...

CITY           SKY/WX    TMP DP  RH WIND       PRES   REMARKS
ALAMOSA        FAIR      58  57  97 CALM      30.38R
DEL NORTE      FAIR      58  47  67 W3        30.42S
LA VETA PASS   NOT AVBL
SAGUACHE         N/A    N/A N/A N/A MISG        N/A
$$

COZ035-036-038>040-271000-
...NORTHERN COLORADO FRONT RANGE...

CITY           SKY/WX    TMP DP  RH WIND       PRES   REMARKS
DENVER INTL AP MOCLDY    64  61  90 SW7       30.25F
DMNS CITY PARK   N/A     62  61  95 S7        30.25F
AURORA         MOCLDY    62  62 100 SW7       30.27F
FRONT RANGE AP FAIR      64  63  94 W7        30.27F
ERIE MUNI ARPT FAIR      63  61  93 SW3       30.23F
BOULDER MUN AP FAIR      63  61  94 SW3       30.24F
CENTENNIAL     MOCLDY    63  60  90 SW8       30.28F
BROOMFIELD     FAIR      63  59  88 S3        30.27F
FORT COLLINS   FAIR      64  61  90 S5        30.23F
LONGMONT       FAIR      64  61  91 CALM      30.25F FOG
$$

COZ041-046-047-076>085-087-088-271000-
...PIKES PEAK/PALMER DIVIDE AND SOUTHERN FOOTHILLS...

CITY           SKY/WX    TMP DP  RH WIND       PRES   REMARKS
COLO. SPRINGS  MOCLDY    64  61  90 W9        30.33F
A. F. ACADEMY  CLOUDY    61  61 100 S3        30.34F
SCHRIEVER AFB  LGT RAIN  61  60  96 W6        30.33F
CHEYENNE MTN   CLOUDY    59  56  88 CALM      30.33F
ELLICOTT       MIX PCPN   1 N/A N/A SW3       30.30F
FALCON           N/A     59  58  97 W8        30.37F
FORT CARSON    MOCLDY    62  62  99 W7        30.31F
LIMON          MOCLDY    62  61  96 NE7       30.25F
MONUMENT HILL  FAIR      55  54  94 W8        30.38S
CANON CITY     RAIN      64  63  94 W3        30.31F
WALSENBURG     CLOUDY    63  59  88 N16G25    30.33F
TRINIDAD       CLOUDY    66  60  81 NW10      30.30F
$$

COZ042>045-048>051-090-091-271000-
...NORTHEAST COLORADO...

CITY           SKY/WX    TMP DP  RH WIND       PRES   REMARKS
GREELEY ARPT   FAIR      64  63  96 CALM      30.22F
AKRON          FAIR      66  63  90 S6        30.23F
BURLINGTON     CLOUDY    70  66  87 NE5       30.20S
WRAY           NOT AVBL
YUMA           PTSUNNY   64  57  77 CALM      30.21S
STERLING       FAIR      64  63  94 CALM      30.19S
HOLYOKE        CLOUDY    68  63  83 CALM      30.20S
FORT MORGAN    MOCLDY    64  62  91 E3        30.22S
$$

COZ086-089-092>099-271000-
...SOUTHEAST COLORADO...

CITY           SKY/WX    TMP DP  RH WIND       PRES   REMARKS
PUEBLO         LGT RAIN  64  61  90 NW6       30.25F
LA JUNTA       CLOUDY    70  67  90 SE7       30.20F
LAMAR          CLOUDY    71  68  90 CALM      30.16F
SPRINGFIELD      N/A     64  64 100 N6        30.19F
$$



USA.gov is the U.S. government's official web portal to all federal, state and local government web resources and services.